"datetime","temp","dp","rain_mm","uv","solar","mb","wind_mph","gust_mph","windchill","rh"
"2019-10-04 00:00:00",13.8,13.2,0.0,0.0,0,1003.6,0,2,"",96
"2019-10-04 00:01:00",13.8,13.2,0.0,0.0,0,1003.7,0,0,"",96
"2019-10-04 00:02:00",13.8,13.2,0.0,0.0,0,1003.7,0,1,"",96
"2019-10-04 00:03:00",13.8,13.2,0.0,0.0,0,1003.7,0,0,"",96
"2019-10-04 00:04:00",13.8,13.2,0.0,0.0,0,1003.7,0,0,"",96
"2019-10-04 00:05:00",13.8,13.2,0.2,0.0,0,1003.8,0,1,"",96
"2019-10-04 00:06:00",13.8,13.2,0.2,0.0,0,1003.8,0,0,"",96
"2019-10-04 00:07:00",13.8,13.2,0.2,0.0,0,1003.8,0,2,"",96
"2019-10-04 00:08:00",13.8,13.2,0.2,0.0,0,1003.8,0,1,"",96
"2019-10-04 00:09:00",13.8,13.2,0.2,0.0,0,1003.8,0,0,"",96
"2019-10-04 00:10:00",13.9,13.4,0.4,0.0,0,1003.8,1,3,"",97
"2019-10-04 00:11:00",13.9,13.4,0.6,0.0,0,1003.7,0,2,"",97
"2019-10-04 00:12:00",13.9,13.3,0.8,0.0,0,1003.8,0,0,"",96
"2019-10-04 00:13:00",13.9,13.3,0.8,0.0,0,1003.7,0,0,"",96
"2019-10-04 00:14:00",14.0,13.4,1.0,0.0,0,1003.8,0,0,"",96
"2019-10-04 00:15:00",13.9,13.3,1.0,0.0,0,1003.7,0,0,"",96
"2019-10-04 00:16:00",13.9,13.3,1.0,0.0,0,1003.6,0,0,"",96
"2019-10-04 00:17:00",13.9,13.3,1.0,0.0,0,1003.6,0,0,"",96
"2019-10-04 00:18:00",13.9,13.3,1.0,0.0,0,1003.6,0,0,"",96
"2019-10-04 00:19:00",13.9,13.3,1.0,0.0,0,1003.5,0,1,"",96
"2019-10-04 00:20:00",13.8,13.2,1.0,0.0,0,1003.5,0,1,"",96
"2019-10-04 00:21:00",13.8,13.2,1.0,0.0,0,1003.5,0,0,"",96
"2019-10-04 00:22:00",13.8,13.2,1.0,0.0,0,1003.5,0,0,"",96
"2019-10-04 00:23:00",13.8,13.2,1.0,0.0,0,1003.5,0,1,"",96
"2019-10-04 00:24:00",13.8,13.3,1.0,0.0,0,1003.5,0,0,"",97
"2019-10-04 00:25:00",13.8,13.3,1.0,0.0,0,1003.4,0,0,"",97
"2019-10-04 00:26:00",13.8,13.3,1.0,0.0,0,1003.4,0,0,"",97
"2019-10-04 00:27:00",13.8,13.3,1.0,0.0,0,1003.4,0,0,"",97
"2019-10-04 00:28:00",13.8,13.3,1.0,0.0,0,1003.5,0,0,"",97
"2019-10-04 00:29:00",13.8,13.3,1.0,0.0,0,1003.5,0,0,"",97
"2019-10-04 00:30:00",13.8,13.3,1.0,0.0,0,1003.5,0,0,"",97
"2019-10-04 00:31:00",13.8,13.3,1.0,0.0,0,1003.5,0,0,"",97
"2019-10-04 00:32:00",13.8,13.3,1.0,0.0,0,1003.4,0,0,"",97
"2019-10-04 00:33:00",13.8,13.3,1.0,0.0,0,1003.4,0,0,"",97
"2019-10-04 00:34:00",13.8,13.3,1.0,0.0,0,1003.4,0,0,"",97
"2019-10-04 00:35:00",13.8,13.3,1.0,0.0,0,1003.4,0,0,"",97
"2019-10-04 00:36:00",13.7,13.2,1.0,0.0,0,1003.3,0,1,"",97
"2019-10-04 00:37:00",13.7,13.1,1.0,0.0,0,1003.3,0,2,"",96
"2019-10-04 00:38:00",13.7,13.1,1.0,0.0,0,1003.1,0,0,"",96
"2019-10-04 00:39:00",13.7,13.1,1.0,0.0,0,1003.1,0,0,"",96
"2019-10-04 00:40:00",13.7,13.1,1.0,0.0,0,1003.1,0,1,"",96
"2019-10-04 00:41:00",13.7,13.1,1.0,0.0,0,1003.2,0,0,"",96
"2019-10-04 00:42:00",13.7,13.2,1.0,0.0,0,1003.2,0,0,"",97
"2019-10-04 00:43:00",13.7,13.2,1.0,0.0,0,1003.2,0,0,"",97
"2019-10-04 00:44:00",13.7,13.2,1.0,0.0,0,1003.2,0,0,"",97
"2019-10-04 00:45:00",13.7,13.2,1.0,0.0,0,1003.2,0,0,"",97
"2019-10-04 00:46:00",13.7,13.2,1.0,0.0,0,1003.2,0,0,"",97
"2019-10-04 00:47:00",13.7,13.2,1.0,0.0,0,1003.2,0,0,"",97
"2019-10-04 00:48:00",13.7,13.2,1.0,0.0,0,1003.2,0,0,"",97
"2019-10-04 00:49:00",13.7,13.2,1.0,0.0,0,1003.2,0,0,"",97
"2019-10-04 00:50:00",13.7,13.2,1.0,0.0,0,1003.1,0,0,"",97
"2019-10-04 00:51:00",13.7,13.2,1.0,0.0,0,1003.1,0,0,"",97
"2019-10-04 00:52:00",13.7,13.2,1.0,0.0,0,1003.1,0,0,"",97
"2019-10-04 00:53:00",13.7,13.2,1.0,0.0,0,1003.0,0,0,"",97
"2019-10-04 00:54:00",13.7,13.2,1.0,0.0,0,1003.0,0,0,"",97
"2019-10-04 00:55:00",13.8,13.3,1.0,0.0,0,1003.0,0,0,"",97
"2019-10-04 00:56:00",13.8,13.3,1.0,0.0,0,1003.0,0,0,"",97
"2019-10-04 00:57:00",13.8,13.3,1.0,0.0,0,1003.0,0,0,"",97
"2019-10-04 00:58:00",13.8,13.3,1.0,0.0,0,1002.9,0,0,"",97
"2019-10-04 00:59:00",13.8,13.3,1.0,0.0,0,1003.0,0,0,"",97
"2019-10-04 01:00:00",13.7,13.2,1.0,0.0,0,1003.0,0,0,"",97
"2019-10-04 01:01:00",13.8,13.3,1.0,0.0,0,1003.0,0,0,"",97
"2019-10-04 01:02:00",13.8,13.3,1.0,0.0,0,1003.0,0,0,"",97
"2019-10-04 01:03:00",13.8,13.3,1.0,0.0,0,1003.0,0,0,"",97
"2019-10-04 01:04:00",13.7,13.2,1.0,0.0,0,1003.0,0,0,"",97
"2019-10-04 01:05:00",13.8,13.3,1.0,0.0,0,1003.0,0,0,"",97
"2019-10-04 01:06:00",13.8,13.3,1.0,0.0,0,1003.1,0,0,"",97
"2019-10-04 01:07:00",13.8,13.3,1.0,0.0,0,1003.1,0,0,"",97
"2019-10-04 01:08:00",13.8,13.3,1.0,0.0,0,1003.0,0,0,"",97
"2019-10-04 01:09:00",13.8,13.3,1.0,0.0,0,1003.1,1,8,"",97
"2019-10-04 01:10:00",13.8,13.3,1.0,0.0,0,1003.0,1,3,"",97
"2019-10-04 01:11:00",13.9,13.4,1.0,0.0,0,1003.1,0,0,"",97
"2019-10-04 01:12:00",13.9,13.4,1.0,0.0,0,1003.1,0,0,"",97
"2019-10-04 01:13:00",13.9,13.4,1.0,0.0,0,1003.1,0,0,"",97
"2019-10-04 01:14:00",13.9,13.4,1.0,0.0,0,1003.1,0,0,"",97
"2019-10-04 01:15:00",13.9,13.4,1.0,0.0,0,1003.1,0,0,"",97
"2019-10-04 01:16:00",14.0,13.5,1.0,0.0,0,1003.1,0,0,"",97
"2019-10-04 01:17:00",14.0,13.5,1.0,0.0,0,1003.1,0,0,"",97
"2019-10-04 01:18:00",14.0,13.5,1.0,0.0,0,1003.2,0,0,"",97
"2019-10-04 01:19:00",14.0,13.5,1.0,0.0,0,1003.2,0,0,"",97
"2019-10-04 01:20:00",14.0,13.5,1.0,0.0,0,1003.3,0,0,"",97
"2019-10-04 01:21:00",13.9,13.4,1.0,0.0,0,1003.3,0,0,"",97
"2019-10-04 01:22:00",14.0,13.5,1.0,0.0,0,1003.4,0,1,"",97
"2019-10-04 01:23:00",14.0,13.5,1.2,0.0,0,1003.4,0,0,"",97
"2019-10-04 01:24:00",14.0,13.5,1.2,0.0,0,1003.4,0,0,"",97
"2019-10-04 01:25:00",14.1,13.6,1.2,0.0,0,1003.4,1,4,"",97
"2019-10-04 01:26:00",14.1,13.6,1.4,0.0,0,1003.4,2,4,"",97
"2019-10-04 01:27:00",14.1,13.6,1.4,0.0,0,1003.4,0,0,"",97
"2019-10-04 01:28:00",14.1,13.6,1.4,0.0,0,1003.4,0,0,"",97
"2019-10-04 01:29:00",14.1,13.6,1.4,0.0,0,1003.4,0,0,"",97
"2019-10-04 01:30:00",14.1,13.6,1.4,0.0,0,1003.3,0,0,"",97
"2019-10-04 01:31:00",14.1,13.6,1.4,0.0,0,1003.4,1,3,"",97
"2019-10-04 01:32:00",14.1,13.6,1.4,0.0,0,1003.4,1,6,"",97
"2019-10-04 01:33:00",14.1,13.6,1.4,0.0,0,1003.4,0,0,"",97
"2019-10-04 01:34:00",14.1,13.6,1.4,0.0,0,1003.3,0,0,"",97
"2019-10-04 01:35:00",14.1,13.6,1.4,0.0,0,1003.4,0,2,"",97
"2019-10-04 01:36:00",14.0,13.5,1.4,0.0,0,1003.3,0,1,"",97
"2019-10-04 01:37:00",14.0,13.5,1.4,0.0,0,1003.3,1,2,"",97
"2019-10-04 01:38:00",14.0,13.5,1.4,0.0,0,1003.3,0,1,"",97
"2019-10-04 01:39:00",14.0,13.5,1.4,0.0,0,1003.2,0,0,"",97
"2019-10-04 01:40:00",13.9,13.4,1.4,0.0,0,1003.3,0,1,"",97
"2019-10-04 01:41:00",13.9,13.4,1.4,0.0,0,1003.3,0,1,"",97
"2019-10-04 01:42:00",13.9,13.4,1.4,0.0,0,1003.3,0,0,"",97
"2019-10-04 01:43:00",13.9,13.4,1.4,0.0,0,1003.2,0,0,"",97
"2019-10-04 01:44:00",13.9,13.4,1.4,0.0,0,1003.3,0,0,"",97
"2019-10-04 01:45:00",13.8,13.3,1.4,0.0,0,1003.2,0,0,"",97
"2019-10-04 01:46:00",13.8,13.3,1.4,0.0,0,1003.2,0,0,"",97
"2019-10-04 01:47:00",13.7,13.2,1.4,0.0,0,1003.2,0,0,"",97
"2019-10-04 01:48:00",13.7,13.2,1.4,0.0,0,1003.3,0,0,"",97
"2019-10-04 01:49:00",13.7,13.2,1.4,0.0,0,1003.3,0,0,"",97
"2019-10-04 01:50:00",13.6,13.1,1.4,0.0,0,1003.3,0,0,"",97
"2019-10-04 01:51:00",13.6,13.1,1.4,0.0,0,1003.3,0,0,"",97
"2019-10-04 01:52:00",13.6,13.1,1.4,0.0,0,1003.3,0,0,"",97
"2019-10-04 01:53:00",13.5,13.0,1.4,0.0,0,1003.3,0,2,"",97
"2019-10-04 01:54:00",13.5,13.0,1.4,0.0,0,1003.3,0,1,"",97
"2019-10-04 01:55:00",13.4,12.9,1.4,0.0,0,1003.3,0,0,"",97
"2019-10-04 01:56:00",13.4,12.9,1.4,0.0,0,1003.3,0,0,"",97
"2019-10-04 01:57:00",13.3,12.8,1.4,0.0,0,1003.3,1,4,"",97
"2019-10-04 01:58:00",13.3,12.8,1.4,0.0,0,1003.3,0,0,"",97
"2019-10-04 01:59:00",13.3,12.8,1.4,0.0,0,1003.3,0,0,"",97
"2019-10-04 02:00:00",13.2,12.7,1.4,0.0,0,1003.4,0,0,"",97
"2019-10-04 02:01:00",13.2,12.7,1.4,0.0,0,1003.4,0,0,"",97
"2019-10-04 02:02:00",13.1,12.6,1.4,0.0,0,1003.4,0,1,"",97
"2019-10-04 02:03:00",13.1,12.6,1.4,0.0,0,1003.4,1,3,"",97
"2019-10-04 02:04:00",13.1,12.6,1.4,0.0,0,1003.4,0,0,"",97
"2019-10-04 02:05:00",13.1,12.6,1.4,0.0,0,1003.4,0,0,"",97
"2019-10-04 02:06:00",13.0,12.5,1.4,0.0,0,1003.4,0,0,"",97
"2019-10-04 02:07:00",13.0,12.5,1.4,0.0,0,1003.4,0,0,"",97
"2019-10-04 02:08:00",12.9,12.4,1.4,0.0,0,1003.4,0,0,"",97
"2019-10-04 02:09:00",12.9,12.4,1.4,0.0,0,1003.4,0,0,"",97
"2019-10-04 02:10:00",12.9,12.4,1.4,0.0,0,1003.3,0,0,"",97
"2019-10-04 02:11:00",12.9,12.4,1.4,0.0,0,1003.3,0,0,"",97
"2019-10-04 02:12:00",12.9,12.4,1.4,0.0,0,1003.2,0,1,"",97
"2019-10-04 02:13:00",12.9,12.4,1.4,0.0,0,1003.2,0,0,"",97
"2019-10-04 02:14:00",12.8,12.3,1.4,0.0,0,1003.2,0,0,"",97
"2019-10-04 02:15:00",12.8,12.3,1.4,0.0,0,1003.2,0,0,"",97
"2019-10-04 02:16:00",12.8,12.3,1.4,0.0,0,1003.2,0,0,"",97
"2019-10-04 02:17:00",12.8,12.3,1.4,0.0,0,1003.2,0,0,"",97
"2019-10-04 02:18:00",12.7,12.2,1.4,0.0,0,1003.2,0,0,"",97
"2019-10-04 02:19:00",12.7,12.2,1.4,0.0,0,1003.2,0,0,"",97
"2019-10-04 02:20:00",12.7,12.2,1.4,0.0,0,1003.2,0,0,"",97
"2019-10-04 02:21:00",12.7,12.2,1.4,0.0,0,1003.2,0,0,"",97
"2019-10-04 02:22:00",12.7,12.2,1.4,0.0,0,1003.2,0,0,"",97
"2019-10-04 02:23:00",12.7,12.2,1.4,0.0,0,1003.2,0,2,"",97
"2019-10-04 02:24:00",12.6,12.1,1.4,0.0,0,1003.1,0,1,"",97
"2019-10-04 02:25:00",12.6,12.1,1.4,0.0,0,1003.2,0,0,"",97
"2019-10-04 02:26:00",12.5,12.0,1.4,0.0,0,1003.2,0,0,"",97
"2019-10-04 02:27:00",12.5,12.0,1.4,0.0,0,1003.3,0,0,"",97
"2019-10-04 02:28:00",12.4,11.9,1.4,0.0,0,1003.3,0,0,"",97
"2019-10-04 02:29:00",12.4,11.9,1.4,0.0,0,1003.3,0,0,"",97
"2019-10-04 02:30:00",12.4,11.9,1.4,0.0,0,1003.3,0,0,"",97
"2019-10-04 02:31:00",12.4,11.9,1.4,0.0,0,1003.4,0,0,"",97
"2019-10-04 02:32:00",12.3,11.8,1.4,0.0,0,1003.4,0,0,"",97
"2019-10-04 02:33:00",12.3,11.8,1.4,0.0,0,1003.4,0,0,"",97
"2019-10-04 02:34:00",12.3,11.8,1.4,0.0,0,1003.4,0,0,"",97
"2019-10-04 02:35:00",12.2,11.7,1.4,0.0,0,1003.4,0,0,"",97
"2019-10-04 02:36:00",12.2,11.7,1.4,0.0,0,1003.3,0,0,"",97
"2019-10-04 02:37:00",12.1,11.6,1.4,0.0,0,1003.3,0,0,"",97
"2019-10-04 02:38:00",12.1,11.6,1.4,0.0,0,1003.3,0,0,"",97
"2019-10-04 02:39:00",12.1,11.6,1.4,0.0,0,1003.3,0,0,"",97
"2019-10-04 02:40:00",12.1,11.6,1.4,0.0,0,1003.4,0,0,"",97
"2019-10-04 02:41:00",12.1,11.6,1.4,0.0,0,1003.3,0,0,"",97
"2019-10-04 02:42:00",12.0,11.5,1.4,0.0,0,1003.4,0,0,"",97
"2019-10-04 02:43:00",11.9,11.4,1.4,0.0,0,1003.3,0,0,"",97
"2019-10-04 02:44:00",11.9,11.4,1.4,0.0,0,1003.4,0,0,"",97
"2019-10-04 02:45:00",11.9,11.4,1.4,0.0,0,1003.4,0,0,"",97
"2019-10-04 02:46:00",11.9,11.4,1.4,0.0,0,1003.3,0,0,"",97
"2019-10-04 02:47:00",11.9,11.4,1.4,0.0,0,1003.3,0,0,"",97
"2019-10-04 02:48:00",11.9,11.4,1.4,0.0,0,1003.3,0,0,"",97
"2019-10-04 02:49:00",11.9,11.4,1.4,0.0,0,1003.3,0,0,"",97
"2019-10-04 02:50:00",11.9,11.4,1.4,0.0,0,1003.3,0,0,"",97
"2019-10-04 02:51:00",11.9,11.4,1.4,0.0,0,1003.3,0,0,"",97
"2019-10-04 02:52:00",11.9,11.4,1.4,0.0,0,1003.3,0,0,"",97
"2019-10-04 02:53:00",12.0,11.5,1.4,0.0,0,1003.3,0,0,"",97
"2019-10-04 02:54:00",12.1,11.6,1.4,0.0,0,1003.3,0,0,"",97
"2019-10-04 02:55:00",12.0,11.5,1.4,0.0,0,1003.3,0,0,"",97
"2019-10-04 02:56:00",12.1,11.6,1.4,0.0,0,1003.3,0,1,"",97
"2019-10-04 02:57:00",12.1,11.6,1.4,0.0,0,1003.3,0,0,"",97
"2019-10-04 02:58:00",12.2,11.7,1.4,0.0,0,1003.3,0,1,"",97
"2019-10-04 02:59:00",12.2,11.7,1.4,0.0,0,1003.3,0,0,"",97
"2019-10-04 03:00:00",12.2,11.7,1.4,0.0,0,1003.3,0,1,"",97
"2019-10-04 03:01:00",12.2,11.7,1.4,0.0,0,1003.4,0,0,"",97
"2019-10-04 03:02:00",12.3,11.8,1.4,0.0,0,1003.4,0,0,"",97
"2019-10-04 03:03:00",12.3,11.8,1.4,0.0,0,1003.4,0,0,"",97
"2019-10-04 03:04:00",12.3,11.8,1.4,0.0,0,1003.4,0,0,"",97
"2019-10-04 03:05:00",12.3,11.8,1.4,0.0,0,1003.4,0,0,"",97
"2019-10-04 03:06:00",12.3,11.8,1.4,0.0,0,1003.3,0,0,"",97
"2019-10-04 03:07:00",12.3,11.8,1.4,0.0,0,1003.3,0,0,"",97
"2019-10-04 03:08:00",12.3,11.8,1.4,0.0,0,1003.3,0,0,"",97
"2019-10-04 03:09:00",12.3,11.8,1.4,0.0,0,1003.3,0,0,"",97
"2019-10-04 03:10:00",12.3,11.8,1.4,0.0,0,1003.3,0,0,"",97
"2019-10-04 03:11:00",12.3,11.8,1.4,0.0,0,1003.2,0,0,"",97
"2019-10-04 03:12:00",12.3,11.8,1.4,0.0,0,1003.2,0,0,"",97
"2019-10-04 03:13:00",12.3,11.8,1.4,0.0,0,1003.2,0,0,"",97
"2019-10-04 03:14:00",12.3,11.8,1.4,0.0,0,1003.2,0,1,"",97
"2019-10-04 03:15:00",12.3,11.8,1.4,0.0,0,1003.2,0,0,"",97
"2019-10-04 03:16:00",12.3,11.8,1.4,0.0,0,1003.2,0,0,"",97
"2019-10-04 03:17:00",12.3,11.8,1.4,0.0,0,1003.2,0,3,"",97
"2019-10-04 03:18:00",12.3,11.8,1.4,0.0,0,1003.2,0,0,"",97
"2019-10-04 03:19:00",12.3,11.8,1.4,0.0,0,1003.2,0,0,"",97
"2019-10-04 03:20:00",12.2,11.7,1.4,0.0,0,1003.3,0,0,"",97
"2019-10-04 03:21:00",12.2,11.7,1.4,0.0,0,1003.3,0,0,"",97
"2019-10-04 03:22:00",12.2,11.7,1.4,0.0,0,1003.2,0,0,"",97
"2019-10-04 03:23:00",12.2,11.7,1.4,0.0,0,1003.2,0,0,"",97
"2019-10-04 03:24:00",12.1,11.6,1.4,0.0,0,1003.3,0,1,"",97
"2019-10-04 03:25:00",12.1,11.6,1.4,0.0,0,1003.3,0,0,"",97
"2019-10-04 03:26:00",12.1,11.6,1.4,0.0,0,1003.3,0,0,"",97
"2019-10-04 03:27:00",12.1,11.6,1.4,0.0,0,1003.3,0,0,"",97
"2019-10-04 03:28:00",12.1,11.6,1.4,0.0,0,1003.3,1,4,"",97
"2019-10-04 03:29:00",12.0,11.5,1.4,0.0,0,1003.4,0,0,"",97
"2019-10-04 03:30:00",12.0,11.5,1.4,0.0,0,1003.4,0,0,"",97
"2019-10-04 03:31:00",12.0,11.5,1.4,0.0,0,1003.4,0,0,"",97
"2019-10-04 03:32:00",12.0,11.5,1.4,0.0,0,1003.3,0,0,"",97
"2019-10-04 03:33:00",11.9,11.4,1.4,0.0,0,1003.3,0,0,"",97
"2019-10-04 03:34:00",11.9,11.4,1.4,0.0,0,1003.2,0,0,"",97
"2019-10-04 03:35:00",11.9,11.4,1.4,0.0,0,1003.3,0,0,"",97
"2019-10-04 03:36:00",11.9,11.4,1.4,0.0,0,1003.3,0,0,"",97
"2019-10-04 03:37:00",11.8,11.3,1.4,0.0,0,1003.3,0,0,"",97
"2019-10-04 03:38:00",11.8,11.3,1.4,0.0,0,1003.2,0,0,"",97
"2019-10-04 03:39:00",11.7,11.2,1.4,0.0,0,1003.2,0,0,"",97
"2019-10-04 03:40:00",11.7,11.2,1.4,0.0,0,1003.3,0,0,"",97
"2019-10-04 03:41:00",11.7,11.2,1.4,0.0,0,1003.3,0,0,"",97
"2019-10-04 03:42:00",11.6,11.1,1.4,0.0,0,1003.2,0,0,"",97
"2019-10-04 03:43:00",11.6,11.1,1.4,0.0,0,1003.2,0,1,"",97
"2019-10-04 03:44:00",11.6,11.1,1.4,0.0,0,1003.2,0,0,"",97
"2019-10-04 03:45:00",11.6,11.1,1.4,0.0,0,1003.2,0,0,"",97
"2019-10-04 03:46:00",11.5,11.0,1.4,0.0,0,1003.2,0,0,"",97
"2019-10-04 03:48:00",11.5,11.0,1.4,0.0,0,1003.1,0,0,"",97
"2019-10-04 03:49:00",11.5,11.0,1.4,0.0,0,1003.1,0,0,"",97
"2019-10-04 03:50:00",11.4,10.9,1.4,0.0,0,1003.1,0,0,"",97
"2019-10-04 03:51:00",11.4,10.9,1.4,0.0,0,1003.1,0,0,"",97
"2019-10-04 03:52:00",11.4,10.9,1.4,0.0,0,1003.1,0,0,"",97
"2019-10-04 03:53:00",11.3,10.8,1.4,0.0,0,1003.1,0,0,"",97
"2019-10-04 03:54:00",11.3,10.8,1.4,0.0,0,1003.1,0,0,"",97
"2019-10-04 03:55:00",11.3,10.8,1.4,0.0,0,1003.1,0,0,"",97
"2019-10-04 03:56:00",11.3,10.8,1.4,0.0,0,1003.1,0,0,"",97
"2019-10-04 03:57:00",11.3,10.8,1.4,0.0,0,1003.2,0,0,"",97
"2019-10-04 03:58:00",11.2,10.7,1.4,0.0,0,1003.3,0,0,"",97
"2019-10-04 03:59:00",11.1,10.6,1.4,0.0,0,1003.2,0,1,"",97
"2019-10-04 04:00:00",11.1,10.6,1.4,0.0,0,1003.2,0,0,"",97
"2019-10-04 04:01:00",11.1,10.6,1.4,0.0,0,1003.2,0,0,"",97
"2019-10-04 04:02:00",11.1,10.6,1.4,0.0,0,1003.2,0,0,"",97
"2019-10-04 04:03:00",11.0,10.5,1.4,0.0,0,1003.3,0,0,"",97
"2019-10-04 04:04:00",11.0,10.5,1.4,0.0,0,1003.3,0,0,"",97
"2019-10-04 04:05:00",10.9,10.4,1.4,0.0,0,1003.3,0,0,"",97
"2019-10-04 04:06:00",10.9,10.4,1.4,0.0,0,1003.3,0,0,"",97
"2019-10-04 04:07:00",10.9,10.4,1.4,0.0,0,1003.4,0,0,"",97
"2019-10-04 04:08:00",11.0,10.5,1.4,0.0,0,1003.4,0,0,"",97
"2019-10-04 04:09:00",10.9,10.4,1.4,0.0,0,1003.4,0,0,"",97
"2019-10-04 04:10:00",10.9,10.4,1.4,0.0,0,1003.4,0,0,"",97
"2019-10-04 04:11:00",10.9,10.4,1.4,0.0,0,1003.4,0,0,"",97
"2019-10-04 04:12:00",10.9,10.4,1.4,0.0,0,1003.4,0,0,"",97
"2019-10-04 04:13:00",10.9,10.4,1.4,0.0,0,1003.4,0,0,"",97
"2019-10-04 04:14:00",10.9,10.4,1.4,0.0,0,1003.4,0,0,"",97
"2019-10-04 04:15:00",10.9,10.4,1.4,0.0,0,1003.4,0,0,"",97
"2019-10-04 04:16:00",10.9,10.4,1.4,0.0,0,1003.4,0,0,"",97
"2019-10-04 04:17:00",10.9,10.4,1.4,0.0,0,1003.4,0,0,"",97
"2019-10-04 04:18:00",10.9,10.4,1.4,0.0,0,1003.5,0,0,"",97
"2019-10-04 04:19:00",10.9,10.4,1.4,0.0,0,1003.5,0,0,"",97
"2019-10-04 04:20:00",10.9,10.4,1.4,0.0,0,1003.6,0,0,"",97
"2019-10-04 04:21:00",10.9,10.4,1.4,0.0,0,1003.6,0,0,"",97
"2019-10-04 04:22:00",10.8,10.3,1.4,0.0,0,1003.6,0,0,"",97
"2019-10-04 04:23:00",10.8,10.3,1.4,0.0,0,1003.7,0,0,"",97
"2019-10-04 04:24:00",10.8,10.3,1.4,0.0,0,1003.7,0,0,"",97
"2019-10-04 04:25:00",10.8,10.3,1.4,0.0,0,1003.6,0,0,"",97
"2019-10-04 04:26:00",10.8,10.3,1.4,0.0,0,1003.7,0,0,"",97
"2019-10-04 04:27:00",10.8,10.3,1.4,0.0,0,1003.7,0,0,"",97
"2019-10-04 04:28:00",10.8,10.3,1.4,0.0,0,1003.7,0,0,"",97
"2019-10-04 04:29:00",10.8,10.3,1.4,0.0,0,1003.7,0,0,"",97
"2019-10-04 04:30:00",10.8,10.3,1.4,0.0,0,1003.7,0,0,"",97
"2019-10-04 04:31:00",10.8,10.3,1.4,0.0,0,1003.8,0,0,"",97
"2019-10-04 04:32:00",10.7,10.2,1.4,0.0,0,1003.8,0,0,"",97
"2019-10-04 04:33:00",10.7,10.2,1.4,0.0,0,1003.8,0,0,"",97
"2019-10-04 04:34:00",10.6,10.1,1.4,0.0,0,1003.8,0,0,"",97
"2019-10-04 04:35:00",10.6,10.1,1.4,0.0,0,1003.8,0,0,"",97
"2019-10-04 04:36:00",10.6,10.1,1.4,0.0,0,1003.8,0,0,"",97
"2019-10-04 04:37:00",10.6,10.1,1.4,0.0,0,1003.8,0,0,"",97
"2019-10-04 04:38:00",10.7,10.2,1.4,0.0,0,1003.9,0,0,"",97
"2019-10-04 04:39:00",10.6,10.1,1.4,0.0,0,1003.8,0,0,"",97
"2019-10-04 04:40:00",10.6,10.1,1.4,0.0,0,1003.8,0,0,"",97
"2019-10-04 04:41:00",10.6,10.1,1.4,0.0,0,1003.9,0,0,"",97
"2019-10-04 04:42:00",10.6,10.1,1.4,0.0,0,1003.9,0,0,"",97
"2019-10-04 04:43:00",10.6,10.1,1.4,0.0,0,1003.9,0,0,"",97
"2019-10-04 04:44:00",10.6,10.1,1.4,0.0,0,1003.8,0,0,"",97
"2019-10-04 04:45:00",10.5,10.0,1.4,0.0,0,1003.8,0,0,"",97
"2019-10-04 04:46:00",10.6,10.1,1.4,0.0,0,1003.8,0,0,"",97
"2019-10-04 04:47:00",10.5,10.0,1.4,0.0,0,1003.8,0,0,"",97
"2019-10-04 04:48:00",10.5,10.0,1.4,0.0,0,1003.8,0,0,"",97
"2019-10-04 04:49:00",10.4,9.9,1.4,0.0,0,1003.8,0,0,"",97
"2019-10-04 04:50:00",10.4,9.9,1.4,0.0,0,1003.8,0,0,"",97
"2019-10-04 04:51:00",10.5,10.0,1.4,0.0,0,1003.8,0,0,"",97
"2019-10-04 04:52:00",10.6,10.1,1.4,0.0,0,1003.8,0,0,"",97
"2019-10-04 04:53:00",10.5,10.0,1.4,0.0,0,1003.8,0,0,"",97
"2019-10-04 04:54:00",10.5,10.0,1.4,0.0,0,1003.8,0,0,"",97
"2019-10-04 04:55:00",10.5,10.0,1.4,0.0,0,1003.8,0,0,"",97
"2019-10-04 04:56:00",10.4,9.9,1.4,0.0,0,1003.8,0,0,"",97
"2019-10-04 04:57:00",10.4,9.9,1.4,0.0,0,1003.8,0,0,"",97
"2019-10-04 04:58:00",10.4,9.9,1.4,0.0,0,1003.8,0,0,"",97
"2019-10-04 04:59:00",10.3,9.8,1.4,0.0,0,1003.9,0,0,"",97
"2019-10-04 05:00:00",10.3,9.8,1.4,0.0,0,1003.8,0,0,"",97
"2019-10-04 05:01:00",10.3,9.8,1.4,0.0,0,1003.8,0,0,"",97
"2019-10-04 05:02:00",10.2,9.7,1.4,0.0,0,1003.8,0,0,"",97
"2019-10-04 05:03:00",10.2,9.7,1.4,0.0,0,1003.8,0,0,"",97
"2019-10-04 05:04:00",10.2,9.7,1.4,0.0,0,1003.9,0,0,"",97
"2019-10-04 05:05:00",10.3,9.8,1.4,0.0,0,1003.8,0,0,"",97
"2019-10-04 05:06:00",10.3,9.8,1.4,0.0,0,1003.8,0,0,"",97
"2019-10-04 05:07:00",10.2,9.7,1.4,0.0,0,1003.8,0,0,"",97
"2019-10-04 05:08:00",10.2,9.7,1.4,0.0,0,1003.8,0,0,"",97
"2019-10-04 05:09:00",10.1,9.6,1.4,0.0,0,1003.8,0,0,"",97
"2019-10-04 05:10:00",10.2,9.7,1.4,0.0,0,1003.8,0,0,"",97
"2019-10-04 05:11:00",10.1,9.6,1.4,0.0,0,1003.8,0,0,"",97
"2019-10-04 05:12:00",10.1,9.6,1.4,0.0,0,1003.9,0,0,"",97
"2019-10-04 05:13:00",10.1,9.6,1.4,0.0,0,1003.9,0,0,"",97
"2019-10-04 05:14:00",10.2,9.7,1.4,0.0,0,1003.9,0,0,"",97
"2019-10-04 05:15:00",10.2,9.7,1.4,0.0,0,1003.9,0,0,"",97
"2019-10-04 05:16:00",10.2,9.7,1.4,0.0,0,1003.9,0,0,"",97
"2019-10-04 05:17:00",10.1,9.6,1.4,0.0,0,1003.9,0,0,"",97
"2019-10-04 05:18:00",10.1,9.6,1.4,0.0,0,1003.9,0,0,"",97
"2019-10-04 05:19:00",10.0,9.5,1.4,0.0,0,1003.9,0,0,"",97
"2019-10-04 05:20:00",9.9,9.4,1.4,0.0,0,1003.9,0,0,"",97
"2019-10-04 05:21:00",9.9,9.4,1.4,0.0,0,1003.9,0,0,"",97
"2019-10-04 05:22:00",9.9,9.4,1.4,0.0,0,1003.9,0,0,"",97
"2019-10-04 05:23:00",9.9,9.4,1.4,0.0,0,1003.9,0,0,"",97
"2019-10-04 05:24:00",9.9,9.4,1.4,0.0,0,1003.9,0,0,"",97
"2019-10-04 05:25:00",9.9,9.4,1.4,0.0,0,1004.0,0,0,"",97
"2019-10-04 05:26:00",9.9,9.4,1.4,0.0,0,1004.0,0,0,"",97
"2019-10-04 05:27:00",9.8,9.3,1.4,0.0,0,1004.1,0,0,"",97
"2019-10-04 05:28:00",9.8,9.3,1.4,0.0,0,1004.0,0,0,"",97
"2019-10-04 05:29:00",9.8,9.3,1.4,0.0,0,1004.0,0,0,"",97
"2019-10-04 05:30:00",9.7,9.2,1.4,0.0,0,1004.0,0,0,"",97
"2019-10-04 05:31:00",9.7,9.2,1.4,0.0,0,1004.0,0,0,"",97
"2019-10-04 05:32:00",9.6,9.1,1.4,0.0,0,1004.0,0,0,"",97
"2019-10-04 05:33:00",9.7,9.2,1.4,0.0,0,1004.0,0,0,"",97
"2019-10-04 05:34:00",9.7,9.2,1.4,0.0,0,1004.0,0,0,"",97
"2019-10-04 05:35:00",9.7,9.2,1.4,0.0,0,1004.0,0,0,"",97
"2019-10-04 05:36:00",9.7,9.2,1.4,0.0,0,1004.0,0,0,"",97
"2019-10-04 05:37:00",9.7,9.2,1.4,0.0,0,1004.0,0,0,"",97
"2019-10-04 05:38:00",9.7,9.2,1.4,0.0,0,1004.1,0,0,"",97
"2019-10-04 05:39:00",9.7,9.2,1.4,0.0,0,1004.1,0,0,"",97
"2019-10-04 05:40:00",9.7,9.2,1.4,0.0,0,1004.1,0,0,"",97
"2019-10-04 05:41:00",9.7,9.2,1.4,0.0,0,1004.1,0,0,"",97
"2019-10-04 05:42:00",9.7,9.2,1.4,0.0,0,1004.1,0,0,"",97
"2019-10-04 05:43:00",9.7,9.2,1.4,0.0,0,1004.1,0,0,"",97
"2019-10-04 05:44:00",9.7,9.2,1.4,0.0,0,1004.1,0,0,"",97
"2019-10-04 05:45:00",9.7,9.2,1.4,0.0,0,1004.1,0,0,"",97
"2019-10-04 05:46:00",9.7,9.2,1.4,0.0,0,1004.0,0,0,"",97
"2019-10-04 05:47:00",9.8,9.3,1.4,0.0,0,1004.0,0,0,"",97
"2019-10-04 05:48:00",9.9,9.4,1.4,0.0,0,1004.0,0,0,"",97
"2019-10-04 05:49:00",9.9,9.4,1.4,0.0,0,1003.9,0,0,"",97
"2019-10-04 05:50:00",10.0,9.5,1.4,0.0,0,1004.0,0,0,"",97
"2019-10-04 05:51:00",10.0,9.5,1.4,0.0,0,1004.0,0,0,"",97
"2019-10-04 05:52:00",10.0,9.5,1.4,0.0,0,1003.9,0,0,"",97
"2019-10-04 05:53:00",10.1,9.6,1.4,0.0,0,1003.9,0,0,"",97
"2019-10-04 05:54:00",10.1,9.6,1.4,0.0,0,1004.0,0,0,"",97
"2019-10-04 05:55:00",10.1,9.6,1.4,0.0,0,1003.9,0,0,"",97
"2019-10-04 05:56:00",10.1,9.6,1.4,0.0,0,1003.8,0,0,"",97
"2019-10-04 05:57:00",10.1,9.6,1.4,0.0,0,1003.9,0,0,"",97
"2019-10-04 05:58:00",10.1,9.6,1.4,0.0,0,1003.8,0,0,"",97
"2019-10-04 05:59:00",10.1,9.6,1.4,0.0,0,1003.8,0,0,"",97
"2019-10-04 06:00:00",10.1,9.6,1.4,0.0,0,1003.9,0,0,"",97
"2019-10-04 06:01:00",10.2,9.7,1.4,0.0,0,1003.8,0,0,"",97
"2019-10-04 06:02:00",10.2,9.9,1.4,0.0,0,1003.8,0,0,"",98
"2019-10-04 06:03:00",10.2,9.9,1.4,0.0,0,1003.8,0,0,"",98
"2019-10-04 06:04:00",10.2,9.7,1.4,0.0,0,1003.8,0,0,"",97
"2019-10-04 06:05:00",10.2,9.9,1.4,0.0,0,1003.8,0,0,"",98
"2019-10-04 06:06:00",10.2,9.7,1.4,0.0,0,1003.9,0,0,"",97
"2019-10-04 06:07:00",10.2,9.9,1.4,0.0,0,1003.9,0,0,"",98
"2019-10-04 06:08:00",10.2,9.9,1.4,0.0,0,1003.9,0,0,"",98
"2019-10-04 06:09:00",10.2,9.7,1.4,0.0,0,1003.9,0,0,"",97
"2019-10-04 06:10:00",10.2,9.7,1.4,0.0,0,1003.8,0,0,"",97
"2019-10-04 06:11:00",10.1,9.6,1.4,0.0,0,1003.8,0,0,"",97
"2019-10-04 06:12:00",10.1,9.6,1.4,0.0,0,1003.9,0,0,"",97
"2019-10-04 06:13:00",10.1,9.6,1.4,0.0,0,1003.9,0,0,"",97
"2019-10-04 06:14:00",10.1,9.6,1.4,0.0,0,1003.9,0,0,"",97
"2019-10-04 06:15:00",10.1,9.6,1.4,0.0,0,1003.9,0,0,"",97
"2019-10-04 06:16:00",10.1,9.6,1.4,0.0,0,1003.8,0,0,"",97
"2019-10-04 06:17:00",10.1,9.6,1.4,0.0,0,1003.8,0,0,"",97
"2019-10-04 06:18:00",10.2,9.9,1.4,0.0,0,1003.8,0,0,"",98
"2019-10-04 06:19:00",10.1,9.6,1.4,0.0,0,1003.8,0,0,"",97
"2019-10-04 06:20:00",10.2,9.7,1.4,0.0,0,1003.8,0,0,"",97
"2019-10-04 06:21:00",10.1,9.6,1.4,0.0,0,1003.8,0,0,"",97
"2019-10-04 06:22:00",10.1,9.6,1.4,0.0,0,1003.8,0,0,"",97
"2019-10-04 06:23:00",10.1,9.6,1.4,0.0,0,1003.7,0,0,"",97
"2019-10-04 06:24:00",10.1,9.6,1.4,0.0,0,1003.8,0,0,"",97
"2019-10-04 06:25:00",10.1,9.6,1.4,0.0,0,1003.9,0,0,"",97
"2019-10-04 06:26:00",10.1,9.6,1.4,0.0,0,1003.9,0,0,"",97
"2019-10-04 06:27:00",10.1,9.6,1.4,0.0,0,1003.9,0,1,"",97
"2019-10-04 06:28:00",10.1,9.6,1.4,0.0,0,1003.9,0,0,"",97
"2019-10-04 06:29:00",10.1,9.6,1.4,0.0,0,1003.9,0,2,"",97
"2019-10-04 06:30:00",10.1,9.6,1.4,0.0,0,1003.9,0,2,"",97
"2019-10-04 06:31:00",10.1,9.6,1.4,0.0,0,1003.9,0,0,"",97
"2019-10-04 06:32:00",10.0,9.5,1.4,0.0,0,1003.9,1,3,"",97
"2019-10-04 06:33:00",10.1,9.6,1.4,0.0,0,1003.8,0,2,"",97
"2019-10-04 06:34:00",10.1,9.6,1.4,0.0,0,1003.7,0,1,"",97
"2019-10-04 06:35:00",10.1,9.6,1.4,0.0,0,1003.8,0,0,"",97
"2019-10-04 06:36:00",10.1,9.6,1.4,0.0,0,1003.8,0,0,"",97
"2019-10-04 06:37:00",10.2,9.9,1.4,0.0,0,1003.7,0,0,"",98
"2019-10-04 06:38:00",10.2,9.9,1.4,0.0,0,1003.8,0,1,"",98
"2019-10-04 06:39:00",10.3,10.0,1.4,0.0,0,1003.7,0,1,"",98
"2019-10-04 06:40:00",10.3,10.0,1.4,0.0,0,1003.7,0,0,"",98
"2019-10-04 06:41:00",10.3,9.8,1.4,0.0,0,1003.7,0,0,"",97
"2019-10-04 06:42:00",10.4,10.1,1.4,0.0,0,1003.7,0,0,"",98
"2019-10-04 06:43:00",10.4,9.9,1.4,0.0,0,1003.7,0,0,"",97
"2019-10-04 06:44:00",10.4,9.9,1.4,0.0,0,1003.7,0,0,"",97
"2019-10-04 06:45:00",10.4,9.9,1.4,0.0,0,1003.8,0,1,"",97
"2019-10-04 06:46:00",10.5,10.0,1.4,0.0,0,1003.7,0,0,"",97
"2019-10-04 06:47:00",10.6,10.3,1.4,0.0,0,1003.7,0,0,"",98